Location: Colonia Mina de C?rbuni
(46.1667°N, 22.7167°E)
Time: 17:10:07
(UTC+00:00)

Cosmos 2322 Rocket - Pass Details

Date: 04 February 2023
Orbit: 831 x 852 km, 71.0° (Epoch: 29 March)

Event Time Altitude Azimuth Distance (km) Brightness Sun altitude
Rises 16:17:13 0° 190° (S) 3,361 5.7 -7.2°
Reaches altitude 10° 16:19:41 10° 186° (S) 2,431 4.9 -7.6°
Maximum altitude 16:25:06 55° 110° (ESE) 996 2.3 -8.6°
Drops below altitude 10° 16:30:33 10° 34° (NE) 2,451 4.2 -9.5°
Enters shadow 16:32:52 - 31° (NNE) 3,323 4.9 -9.9°
